Location: Arborea
(39.7744°N, 8.5819°E)
Time: 03:47:29
(UTC+00:00)

Cosmos 1459 Rocket - Pass Details

Date: 24 October 2021
Orbit: 936 x 1000 km, 83.0° (Epoch: 27 November)

Event Time Altitude Azimuth Distance (km) Brightness Sun altitude
Rises 18:13:34 0° 166° (SSE) 3,665 6.9 -19.9°
Reaches altitude 10° 18:16:12 10° 160° (SSE) 2,712 6.1 -20.4°
Maximum altitude 18:22:01 44° 90° (E) 1,307 4.2 -21.5°
Drops below altitude 10° 18:27:47 10° 20° (NNE) 2,687 6.1 -22.6°
Sets 18:30:22 0° 15° (NNE) 3,628 6.9 -23.1°
